[Iaude] MPEC N118: 2024 NR2 [a=2.15,e=0.49,i=5.4,H=23.1]
    mpec at cfa.harvard.edu 
    mpec at cfa.harvard.edu
       
    Tue Jul  9 10:27:01 EDT 2024
    
    
  
M.P.E.C. 2024-N118                                 Issued 2024 July 9, 14:25 UT
     The Minor Planet Electronic Circulars contain information on unusual
         minor planets, routine data on comets and natural satellites,
         and occasional editorial announcements.  They are published
    on behalf of Division F of the International Astronomical Union by the
          Minor Planet Center, Smithsonian Astrophysical Observatory,
                          Cambridge, MA 02138, U.S.A.
			  
             Prepared using the Tamkin Foundation Computer Network
                              MPC at CFA.HARVARD.EDU
            URL https://www.minorplanetcenter.net/    ISSN 1523-6714
                                    2024 NR2                                    
Observations:
     K24N02R* C2024 07 06.44591320 51 03.254-38 04 11.69         21.02wXEN118F51
     K24N02R  C2024 07 06.45628120 51 06.743-38 04 31.27         20.46wXEN118F51
     K24N02R  C2024 07 06.46668220 51 10.250-38 04 51.05         20.93wXEN118F51
     K24N02R  C2024 07 06.47701520 51 13.711-38 05 10.49         20.81wXEN118F51
     K24N02R !C2024 07 07.14303520 55 15.247-38 25 36.64         20.8 GVEN118J04
     K24N02R !C2024 07 07.14659720 55 16.490-38 25 43.00         20.9 GVEN118J04
     K24N02R 3C2024 07 07.56054120 57 50.051-38 38 12.27         20.34GVEN118T14
     K24N02R 3C2024 07 07.56151820 57 50.393-38 38 13.96         20.57GVEN118T14
     K24N02R 3C2024 07 07.56249520 57 50.735-38 38 15.71         20.80GVEN118T14
     K24N02R 3C2024 07 09.54901021 10 48.634-39 37 05.95         20.24GVEN118T14
     K24N02R 3C2024 07 09.54998921 10 49.014-39 37 07.60         19.85GVEN118T14
     K24N02R 3C2024 07 09.55096721 10 49.380-39 37 09.33         20.51GVEN118T14
     K24N02R 3C2024 07 09.55196521 10 49.763-39 37 10.79         20.93GVEN118T14
     K24N02R 3C2024 07 09.55294121 10 50.144-39 37 12.59         20.95GVEN118T14
     K24N02R 3C2024 07 09.55392121 10 50.505-39 37 14.21         20.69GVEN118T14
Observer details:
F51 Pan-STARRS 1, Haleakala.  Observers J. Herman, T. Lowe, P. Minguez, A.
    Schultz, I. Smith.  Measurers K. Chambers, T. de Boer, J. Fairlamb, H.
    Gao, M. Huber, C.-C. Lin, E. Magnier, Y. Ramanjooloo, R. Wainscoat, R.
    Weryk.  1.8-m Ritchey-Chretien + CCD.
J04 ESA Optical Ground Station, Tenerife.  Observers D. Abreu, M. Micheli, F.
    Ocana, L. Conversi.  Measurers R. Kresken, M. Micheli, F. Ocana, A.
    Knofel, M. Busch.  1.0-m f/4.4 reflector + CCD.
T14 Canada-France-Hawaii Telescope, Maunakea.  Observers R. Wainscoat, H.
    Januszewski, H. Flewelling, L. Wells, V. Khatu.  Measurers R. Weryk, R.
    Wainscoat.  3.6-m f/4.1 reflector + CCD.
Orbital elements:
2024 NR2                                                 Earth MOID = 0.1245 AU
Epoch 2024 Mar. 31.0 TT = JDT 2460400.5                 MPC                     
M 317.59298              (2000.0)            P               Q                  
n   0.31350581     Peri.  250.69639     +0.81648601     +0.57026169             
a   2.1460458      Node    74.43730     -0.48828239     +0.76546582             
e   0.4884138      Incl.    5.37799     -0.30810860     +0.29810013             
P   3.14           H   23.15          G   0.15           U   9                  
Residuals in seconds of arc
240706 F51  0.0   0.2-    240707 J04  0.3+  0.1-    240709 T14  0.1+  0.0
240706 F51  0.0   0.0     240707 T14  0.1-  0.0     240709 T14  0.0   0.1-
240706 F51  0.1+  0.0     240707 T14  0.1-  0.0     240709 T14  0.0   0.1+
240706 F51  0.0   0.1+    240707 T14  0.1-  0.0     240709 T14  0.1+  0.0
240707 J04  0.2+  0.1-    240709 T14  0.0   0.0     240709 T14  0.0   0.0
Ephemeris:
2024 NR2                 a,e,i = 2.15, 0.49, 5                   q = 1.0979
Date    TT    R. A. (2000) Decl.     Delta      r    Elong.  Phase     V
2024 06 09    19 11 03.4 -26 25 00   0.3283  1.3145   152.2    21.1    22.4
...
2024 06 24    19 52 57.5 -31 52 22   0.2345  1.2344   156.1    19.5    21.4
...
2024 07 02    20 26 45.1 -35 45 44   0.1966  1.1972   154.5    21.4    21.1
...
2024 07 08    21 00 37.7 -38 50 44   0.1742  1.1724   151.2    24.7    20.8
2024 07 09    21 07 08.2 -39 20 23   0.1710  1.1685   150.5    25.4    20.8
2024 07 10    21 13 54.4 -39 49 15   0.1679  1.1648   149.7    26.1    20.8
...
2024 07 16    21 59 58.9 -42 14 17   0.1528  1.1441   144.4    31.1    20.7
...
2024 07 24    23 12 10.6 -43 14 50   0.1414  1.1220   136.1    38.8    20.7
...
2024 08 08    01 12 37.7 -37 04 06   0.1435  1.0995   123.4    50.4    21.0
A. U. Tomatic                (C) Copyright 2024 MPC           M.P.E.C. 2024-N118
    
    
More information about the Iaude
mailing list